Weather History for KGFK - January, 2012

Change the Weather History Date:

Friday, January 6, 2012

  Actual Average Record
Temperature  
Mean Temperature 32 °F 7 °F  
Max Temperature 39 °F 16 °F 43 °F (1990)
Min Temperature 25 °F -3 °F -31 °F (1968)
Degree Days  
Heating Degree Days 33 58  
Month to date heating degree days 247 348  
Since 1 July heating degree days 3259 4207  
Cooling Degree Days 0 0  
Month to date cooling degree days 0 0  
Year to date cooling degree days 0 0  
Moisture  
Dew Point 27 °F    
Average Humidity 76    
Maximum Humidity 92    
Minimum Humidity 59    
Precipitation  
Precipitation 0.01 in 0.02 in 0.48 in (1980)
Month to date precipitation 0.01 0.11  
Year to date precipitation 0.01 0.11  
Snow  
Snow T in 0.40 in 6.30 in (1989)
Month to date snowfall 0.2 2.2  
Since 1 July snowfall 6.5 22.1  
Snow Depth 3.00 in    
Sea Level Pressure  
Sea Level Pressure 29.77 in    
Wind  
Wind Speed 17 mph (NW)    
Max Wind Speed 29 mph    
Max Gust Speed 37 mph    
Visibility 9 miles    
Events Rain , Snow    
T = Trace of Precipitation, MM = Missing Value Source: NWS Daily Summary

Daily Weather History Graph

Daily Weather History Graph

Search for Another Location

Airport or City:

Trip Planner

Search our weather history database for the weather conditions in past years. The results will help you decide how hot, cold, wet, or windy it might be!

Date:

Astronomy

Jan. 06, 2012 Rise Set
Actual Time 8:17 AM CST 4:51 PM CST
Civil Twilight 7:41 AM CST 5:27 PM CST
Nautical Twilight 7:02 AM CST 6:06 PM CST
Astronomical Twilight 6:25 AM CST 6:43 PM CST
Moon 2:41 PM CST (1/6) 6:00 AM CST (1/6)
Length of Visible Light 9h 45m
Length of Day
8h 33m
Waxing Gibbous, 93% of the Moon is Illuminated
Jan 6
Waxing Gibbous
Jan 9
Full
Jan 16
Last Quarter
Jan 23
New
Jan 30
First Quarter

Hourly Weather History & Observations

Time (CST) Temp. Windchill Dew Point Humidity Pressure Visibility Wind Dir Wind Speed Gust Speed Precip Events Conditions
12:53 AM 37.9 °F 26.8 °F 30.9 °F 76% 29.54 in 10.0 mi WNW 24.2 mph 32.2 mph N/A   Clear
1:53 AM 37.4 °F 25.9 °F 30.2 °F 75% 29.52 in 10.0 mi West 25.3 mph - N/A   Clear
2:53 AM 37.9 °F 26.6 °F 28.9 °F 70% 29.56 in 10.0 mi West 25.3 mph 36.8 mph N/A   Clear
3:53 AM 37.9 °F 27.1 °F 28.0 °F 68% 29.57 in 10.0 mi West 23.0 mph 32.2 mph N/A   Clear
4:53 AM 36.0 °F 25.0 °F 28.0 °F 73% 29.58 in 10.0 mi WNW 20.7 mph 28.8 mph N/A   Clear
5:53 AM 35.1 °F 24.1 °F 27.0 °F 72% 29.61 in 10.0 mi WNW 19.6 mph 27.6 mph N/A   Clear
6:53 AM 35.1 °F 24.1 °F 27.0 °F 72% 29.63 in 10.0 mi West 19.6 mph - N/A   Clear
7:53 AM 34.0 °F 23.8 °F 27.0 °F 75% 29.66 in 10.0 mi West 16.1 mph - N/A   Clear
8:53 AM 34.0 °F 25.5 °F 26.1 °F 73% 29.67 in 10.0 mi West 11.5 mph - N/A   Clear
9:53 AM 36.0 °F 27.1 °F 27.0 °F 70% 29.69 in 10.0 mi West 13.8 mph - N/A   Clear
10:53 AM 37.9 °F 27.9 °F 27.0 °F 65% 29.70 in 10.0 mi West 19.6 mph 26.5 mph N/A   Clear
11:53 AM 39.0 °F 28.8 °F 27.0 °F 62% 29.69 in 10.0 mi WNW 21.9 mph 28.8 mph N/A   Scattered Clouds
12:53 PM 37.9 °F 26.1 °F 28.0 °F 68% 29.69 in 10.0 mi WNW 27.6 mph 32.2 mph N/A   Overcast
1:53 PM 37.0 °F 27.0 °F 28.9 °F 73% 29.71 in 10.0 mi WNW 18.4 mph 27.6 mph N/A   Overcast
2:53 PM 37.0 °F 26.4 °F 30.0 °F 76% 29.73 in 9.0 mi WNW 20.7 mph 27.6 mph 0.00 in   Overcast
3:30 PM 35.6 °F 24.2 °F 30.2 °F 81% 29.73 in 10.0 mi WNW 21.9 mph 33.4 mph 0.00 in Rain Light Rain
3:53 PM 35.1 °F 25.2 °F 32.0 °F 89% 29.77 in 10.0 mi NW 16.1 mph - 0.00 in Rain Light Rain
4:28 PM 33.8 °F 22.8 °F 30.2 °F 87% 29.78 in 1.0 mi North 18.4 mph 21.9 mph 0.00 in Rain , Snow Light Rain
4:38 PM 32.0 °F 19.8 °F 30.2 °F 93% 29.79 in 2.0 mi North 20.7 mph 28.8 mph 0.01 in Rain , Snow Light Rain
4:53 PM 32.0 °F 19.8 °F 28.9 °F 88% 29.84 in 5.0 mi North 20.7 mph 28.8 mph 0.01 in Rain , Snow Light Rain
5:01 PM 30.2 °F 16.8 °F 28.4 °F 93% 29.82 in 5.0 mi NNW 23.0 mph 28.8 mph N/A Rain , Snow Light Freezing Rain
5:28 PM 28.4 °F 14.4 °F 24.8 °F 86% 29.85 in 10.0 mi North 23.0 mph 33.4 mph 0.00 in   Overcast
5:53 PM 28.9 °F 17.3 °F 25.0 °F 85% 29.91 in 10.0 mi North 16.1 mph 24.2 mph 0.00 in   Overcast
6:24 PM 28.4 °F 17.5 °F 24.8 °F 86% 29.89 in 10.0 mi North 13.8 mph - N/A   Overcast
6:53 PM 28.0 °F 18.1 °F 25.0 °F 88% 29.94 in 10.0 mi North 11.5 mph - N/A   Overcast
7:53 PM 28.0 °F 20.8 °F 25.0 °F 88% 29.96 in 10.0 mi North 6.9 mph - N/A   Overcast
8:53 PM 27.0 °F 18.0 °F 24.1 °F 89% 29.96 in 10.0 mi North 9.2 mph - N/A   Overcast
9:41 PM 26.6 °F 18.2 °F 23.0 °F 86% 29.93 in 10.0 mi NNE 8.1 mph - N/A   Overcast
9:53 PM 26.1 °F 18.4 °F 21.9 °F 84% 29.97 in 10.0 mi NNE 6.9 mph - N/A   Overcast
10:41 PM 24.8 °F 19.1 °F 21.2 °F 86% 29.95 in 10.0 mi North 4.6 mph - N/A   Overcast
10:53 PM 26.1 °F - 21.9 °F 84% 29.99 in 10.0 mi Calm Calm - N/A   Overcast
11:53 PM 25.0 °F 18.1 °F 21.0 °F 85% 29.97 in 10.0 mi SE 5.8 mph - N/A   Overcast